Flag for Marshall Islands Weather past 2 weeks in Majuro, Marshall Islands

Now
87 °F

Broken clouds.


Feels Like: 99 °F
Forecast: 81 / 85 °F
Wind: 7 mph from Northeast

Location: Majuro Atoll

Current Time: Mar 3, 2015 at 12:12:03 PM

Latest Report: Mar 3, 2015 at 10:51 AM


Visibility: 15 mi

Pressure: 29.78 "Hg

Humidity: 74%

Dew point: 78 °F

Location of MajuroLocation

Historic Weather in Majuro — Graph

°F

Majuro temperature yesterday

Maximum temperature yesterday: 87 °F (at 12:57 PM)
Minimum temperature yesterday: 81 °F (at 3:50 AM)
Average temperature yesterday: 84 °F

Past Weeks' High & Low Weather Summary

 TemperatureHumidityPressure
High88 °F (Feb 17, 1:51 PM)94% (Feb 23, 5:53 AM)29.89 "Hg (Feb 23, 5:53 AM)
Low76 °F (Feb 23, 5:53 AM)62% (Feb 22, 10:50 AM)29.66 "Hg (Mar 2, 3:52 PM)
Average83 °F80%29.78 "Hg
* Reported Feb 16 10:52 AM — Mar 3 10:51 AM, Majuro, Weather by CustomWeather, © 2015

Note: Actual official high and low records may vary slightly from our data, if they occured in-between our weather recording intervals... More about our weather records

Advertising

Majuro weather history for previous 24 hours

 ConditionsComfort  
Time TempWeatherWind HumidityBarometerVisibility
10:51 AM
Tue, Mar 3
87 °FBroken clouds.7 mph74%29.78 "Hg15 mi
9:51 AM85 °FMore clouds than sun.6 mph77%29.79 "Hg15 mi
8:53 AM85 °FMore clouds than sun.7 mph79%29.78 "Hg15 mi
7:51 AM82 °FMore clouds than sun.3 mph83%29.76 "Hg15 mi
6:52 AM81 °FPartly cloudy.3 mph85%29.74 "Hg15 mi
5:51 AM81 °FPartly cloudy.No wind86%29.72 "Hg15 mi
4:53 AM82 °FPartly cloudy.9 mph86%29.70 "Hg15 mi
3:56 AM82 °FPartly cloudy.No wind84%29.70 "Hg15 mi
2:56 AM82 °FPartly cloudy.8 mph83%29.70 "Hg15 mi
1:51 AM82 °FPassing clouds.6 mph83%29.73 "Hg15 mi
12:54 AM82 °FPassing clouds.6 mph83%29.75 "Hg15 mi
11:53 PM
Mon, Mar 2
82 °FPassing clouds.8 mph82%29.76 "Hg15 mi
10:54 PM83 °FPassing clouds.8 mph82%29.76 "Hg15 mi
9:50 PM83 °FPassing clouds.10 mph81%29.75 "Hg15 mi
8:50 PM83 °FPassing clouds.7 mph81%29.73 "Hg15 mi
7:52 PM83 °FOvercast.6 mph79%29.71 "Hg15 mi
6:51 PM84 °FOvercast.7 mph78%29.70 "Hg15 mi
5:50 PM85 °FPartly sunny.7 mph78%29.68 "Hg15 mi
4:54 PM87 °FPartly sunny.7 mph72%29.67 "Hg15 mi
3:52 PM87 °FScattered clouds.8 mph71%29.66 "Hg20 mi
2:51 PM87 °FScattered clouds.7 mph72%29.67 "Hg20 mi
1:55 PM87 °FScattered clouds.8 mph72%29.70 "Hg20 mi
12:57 PM87 °FBroken clouds.7 mph74%29.72 "Hg20 mi
Weather by CustomWeather, © 2015

See weather overviewHow to use our weather pages